| time (UTC) | temp F | wind direction | speed MPH | gust MPH | rain 1hr in | rain 24hr in | rain mn in | humidity % | barometer mb |
| 20260906072003 | 77 | 33 | 1.0 | 3.0 | 0.00 | 0.00 | 0.00 | 72 | 1023.1 |
| 20260906071003 | 75 | 19 | 1.0 | 3.0 | 0.00 | 0.00 | 0.00 | 74 | 1023.0 |
| 20260906070004 | 75 | 78 | 2.0 | 4.0 | 0.00 | 0.00 | 0.00 | 76 | 1022.9 |
| 20260906065004 | 74 | 48 | 3.0 | 5.0 | 0.00 | 0.00 | 0.00 | 77 | 1022.9 |
| 20260906064003 | 73 | 28 | 3.0 | 6.0 | 0.00 | 0.00 | 0.00 | 78 | 1022.9 |
| 20260906063003 | 73 | 40 | 3.0 | 7.0 | 0.00 | 0.00 | 0.00 | 79 | 1022.9 |
| 20260906062003 | 72 | 31 | 3.0 | 6.0 | 0.00 | 0.00 | 0.00 | 80 | 1022.8 |
| 20260906061003 | 72 | 38 | 3.0 | 7.0 | 0.00 | 0.00 | 0.00 | 82 | 1022.8 |
| 20260906060004 | 71 | 42 | 2.0 | 5.0 | 0.00 | 0.00 | 0.00 | 83 | 1022.8 |
| 20260906055003 | 71 | 39 | 3.0 | 6.0 | 0.00 | 0.00 | 0.00 | 83 | 1022.8 |
| 20260906054003 | 70 | 30 | 3.0 | 6.0 | 0.00 | 0.00 | 0.00 | 84 | 1022.7 |
| 20260906053003 | 70 | 22 | 3.0 | 7.0 | 0.00 | 0.00 | 0.00 | 84 | 1022.6 |
| 20260906052004 | 70 | 26 | 3.0 | 6.0 | 0.00 | 0.00 | 0.00 | 84 | 1022.6 |
| 20260906051004 | 69 | 29 | 2.0 | 5.0 | 0.00 | 0.00 | 0.00 | 85 | 1022.5 |
| 20260906050216 | 69 | 30 | 2.0 | 5.0 | 0.00 | 0.00 | 0.00 | 85 | 1022.5 |
| 20260906045217 | 69 | 42 | 3.0 | 4.0 | 0.00 | 0.00 | 0.00 | 86 | 1022.4 |
| 20260906044003 | 69 | 24 | 2.0 | 6.0 | 0.00 | 0.00 | 0.00 | 86 | 1022.3 |
| 20260906043003 | 69 | 27 | 2.0 | 3.0 | 0.00 | 0.00 | 0.00 | 86 | 1022.2 |
| 20260906042215 | 69 | 25 | 2.0 | 4.0 | 0.00 | 0.00 | 0.00 | 85 | 1022.2 |
| 20260906041216 | 69 | 22 | 2.0 | 3.0 | 0.00 | 0.00 | 0.00 | 85 | 1022.2 |
| 20260906040217 | 69 | 23 | 2.0 | 4.0 | 0.00 | 0.00 | 0.00 | 85 | 1022.2 |
| 20260906035003 | 69 | 25 | 2.0 | 4.0 | 0.00 | 0.00 | 0.00 | 85 | 1022.1 |
| 20260906034004 | 69 | 35 | 2.0 | 4.0 | 0.00 | 0.00 | 0.00 | 85 | 1022.0 |
| 20260906033004 | 69 | 30 | 2.0 | 4.0 | 0.00 | 0.00 | 0.00 | 84 | 1021.9 |
| 20260906032003 | 70 | 15 | 2.0 | 5.0 | 0.00 | 0.00 | 0.00 | 84 | 1022.0 |
| 20260906031003 | 69 | 23 | 2.0 | 4.0 | 0.00 | 0.00 | 0.00 | 85 | 1022.0 |
| 20260906030003 | 69 | 33 | 2.0 | 4.0 | 0.00 | 0.00 | 0.00 | 85 | 1022.1 |
| 20260906025004 | 70 | 35 | 2.0 | 3.0 | 0.00 | 0.00 | 0.00 | 84 | 1022.0 |
| 20260906024003 | 70 | 28 | 2.0 | 4.0 | 0.00 | 0.00 | 0.00 | 83 | 1022.2 |
| 20260906023003 | 71 | 25 | 2.0 | 4.0 | 0.00 | 0.00 | 0.00 | 83 | 1022.3 |
| 20260906022003 | 70 | 26 | 2.0 | 5.0 | 0.00 | 0.00 | 0.00 | 84 | 1022.1 |
| 20260906021003 | 70 | 32 | 2.0 | 4.0 | 0.00 | 0.00 | 0.00 | 84 | 1022.1 |
| 20260906020004 | 70 | 36 | 2.0 | 4.0 | 0.00 | 0.00 | 0.00 | 84 | 1022.0 |
| 20260906015214 | 70 | 48 | 2.0 | 4.0 | 0.00 | 0.00 | 0.00 | 83 | 1022.0 |
| 20260906014215 | 70 | 44 | 1.0 | 4.0 | 0.00 | 0.00 | 0.00 | 83 | 1022.1 |
| 20260906013003 | 71 | 14 | 1.0 | 3.0 | 0.00 | 0.00 | 0.00 | 81 | 1022.2 |
| 20260906012003 | 72 | 62 | 0.0 | 3.0 | 0.00 | 0.00 | 0.00 | 81 | 1022.2 |
| 20260906011003 | 72 | 64 | 0.0 | 2.0 | 0.00 | 0.00 | 0.00 | 79 | 1022.3 |
| 20260906010005 | 72 | 0 | 0.0 | 0.0 | 0.00 | 0.00 | 0.00 | 80 | 1022.2 |
| 20260906005003 | 72 | 0 | 0.0 | 0.0 | 0.00 | 0.00 | 0.00 | 80 | 1022.2 |
| 20260906004003 | 72 | 0 | 0.0 | 0.0 | 0.00 | 0.00 | 0.00 | 80 | 1022.1 |
| 20260906003003 | 72 | 0 | 0.0 | 0.0 | 0.00 | 0.00 | 0.00 | 78 | 1022.1 |
| 20260906002003 | 72 | 77 | 0.0 | 1.0 | 0.00 | 0.00 | 0.00 | 78 | 1022.1 |
| 20260906001003 | 72 | 76 | 1.0 | 3.0 | 0.00 | 0.00 | 0.00 | 80 | 1022.2 |
| 20260906000003 | 72 | 76 | 0.0 | 3.0 | 0.00 | 0.00 | 0.00 | 80 | 1022.2 |
| 20260905235215 | 72 | 0 | 0.0 | 0.0 | 0.00 | 0.00 | 0.00 | 81 | 1022.4 |
| 20260905234216 | 74 | 0 | 0.0 | 0.0 | 0.00 | 0.00 | 0.00 | 82 | 1022.5 |
| 20260905233004 | 75 | 0 | 0.0 | 0.0 | 0.00 | 0.00 | 0.00 | 79 | 1022.4 |
| 20260905232004 | 76 | 0 | 0.0 | 0.0 | 0.00 | 0.00 | 0.00 | 78 | 1022.5 |
| 20260905230004 | 77 | 79 | 0.0 | 2.0 | 0.00 | 0.00 | 0.00 | 77 | 1022.4 |
| 20260905225003 | 77 | 90 | 0.0 | 1.0 | 0.00 | 0.00 | 0.00 | 77 | 1022.4 |
| 20260905224003 | 77 | 0 | 0.0 | 0.0 | 0.00 | 0.00 | 0.00 | 77 | 1022.4 |
| 20260905223003 | 78 | 0 | 0.0 | 0.0 | 0.00 | 0.00 | 0.00 | 77 | 1022.4 |
| 20260905222004 | 78 | 0 | 0.0 | 0.0 | 0.00 | 0.00 | 0.00 | 77 | 1022.4 |
| 20260905221004 | 77 | 0 | 0.0 | 0.0 | 0.00 | 0.00 | 0.00 | 78 | 1022.5 |
| 20260905220215 | 77 | 99 | 1.0 | 1.0 | 0.00 | 0.00 | 0.00 | 78 | 1022.5 |
| 20260905215003 | 77 | 104 | 1.0 | 3.0 | 0.00 | 0.00 | 0.00 | 78 | 1022.5 |
| 20260905214003 | 77 | 105 | 0.0 | 3.0 | 0.00 | 0.00 | 0.00 | 78 | 1022.4 |
| 20260905213003 | 78 | 0 | 1.0 | 0.0 | 0.00 | 0.00 | 0.00 | 77 | 1022.4 |
| 20260905212003 | 79 | 145 | 0.0 | 2.0 | 0.00 | 0.00 | 0.00 | 75 | 1022.2 |
| 20260905211215 | 79 | 166 | 0.0 | 2.0 | 0.00 | 0.00 | 0.00 | 75 | 1022.2 |
| 20260905210216 | 79 | 224 | 0.0 | 2.0 | 0.00 | 0.00 | 0.00 | 76 | 1022.2 |
| 20260905205003 | 79 | 155 | 1.0 | 2.0 | 0.00 | 0.00 | 0.00 | 76 | 1022.2 |
| 20260905204004 | 79 | 152 | 2.0 | 3.0 | 0.00 | 0.00 | 0.00 | 77 | 1022.3 |
| 20260905203003 | 79 | 150 | 1.0 | 4.0 | 0.00 | 0.00 | 0.00 | 77 | 1022.1 |
| 20260905202214 | 79 | 151 | 1.0 | 4.0 | 0.00 | 0.00 | 0.00 | 77 | 1022.2 |
| 20260905201003 | 79 | 145 | 0.0 | 2.0 | 0.00 | 0.00 | 0.00 | 77 | 1022.1 |
| 20260905200217 | 79 | 230 | 1.0 | 3.0 | 0.00 | 0.00 | 0.00 | 77 | 1022.2 |
| 20260905195004 | 79 | 247 | 0.0 | 3.0 | 0.00 | 0.00 | 0.00 | 77 | 1022.3 |
| 20260905194003 | 79 | 229 | 0.0 | 2.0 | 0.00 | 0.00 | 0.00 | 78 | 1022.2 |
| 20260905193003 | 79 | 300 | 0.0 | 2.0 | 0.00 | 0.00 | 0.00 | 78 | 1022.1 |
| 20260905192215 | 79 | 239 | 2.0 | 3.0 | 0.00 | 0.00 | 0.00 | 77 | 1021.9 |
| 20260905191004 | 79 | 247 | 4.0 | 8.0 | 0.00 | 0.00 | 0.00 | 77 | 1021.8 |
| 20260905190004 | 79 | 245 | 4.0 | 10.0 | 0.00 | 0.00 | 0.00 | 77 | 1021.6 |
| 20260905185004 | 80 | 246 | 5.0 | 8.0 | 0.00 | 0.00 | 0.00 | 76 | 1021.6 |
| 20260905184003 | 80 | 247 | 4.0 | 10.0 | 0.00 | 0.00 | 0.00 | 75 | 1021.7 |
| 20260905183003 | 80 | 240 | 3.0 | 6.0 | 0.00 | 0.00 | 0.00 | 73 | 1021.5 |
| 20260905182004 | 81 | 245 | 3.0 | 7.0 | 0.00 | 0.00 | 0.00 | 71 | 1021.5 |
| 20260905181004 | 81 | 248 | 4.0 | 8.0 | 0.00 | 0.00 | 0.00 | 69 | 1021.2 |
| 20260905180003 | 82 | 253 | 4.0 | 9.0 | 0.00 | 0.00 | 0.00 | 65 | 1021.1 |
| 20260905175003 | 82 | 247 | 3.0 | 7.0 | 0.00 | 0.00 | 0.00 | 62 | 1021.0 |
| 20260905174003 | 83 | 239 | 2.0 | 9.0 | 0.00 | 0.00 | 0.00 | 59 | 1020.8 |
| 20260905173004 | 84 | 236 | 3.0 | 7.0 | 0.00 | 0.00 | 0.00 | 57 | 1020.7 |
| 20260905172003 | 85 | 234 | 3.0 | 9.0 | 0.00 | 0.00 | 0.00 | 55 | 1020.7 |
| 20260905171003 | 87 | 254 | 2.0 | 11.0 | 0.00 | 0.00 | 0.00 | 53 | 1020.7 |
| 20260905170004 | 88 | 243 | 3.0 | 11.0 | 0.00 | 0.00 | 0.00 | 52 | 1020.5 |
| 20260905165003 | 89 | 240 | 3.0 | 6.0 | 0.00 | 0.00 | 0.00 | 50 | 1020.5 |
| 20260905164003 | 89 | 239 | 2.0 | 10.0 | 0.00 | 0.00 | 0.00 | 48 | 1020.5 |
| 20260905163003 | 90 | 249 | 2.0 | 6.0 | 0.00 | 0.00 | 0.00 | 45 | 1020.6 |
| 20260905162003 | 90 | 231 | 3.0 | 8.0 | 0.00 | 0.00 | 0.00 | 45 | 1020.5 |
| 20260905161003 | 90 | 240 | 3.0 | 10.0 | 0.00 | 0.00 | 0.00 | 44 | 1020.4 |
| 20260905160003 | 91 | 221 | 4.0 | 11.0 | 0.00 | 0.00 | 0.00 | 45 | 1020.3 |
| 20260905155003 | 91 | 232 | 3.0 | 10.0 | 0.00 | 0.00 | 0.00 | 46 | 1020.4 |
| 20260905154003 | 91 | 215 | 4.0 | 9.0 | 0.00 | 0.00 | 0.00 | 47 | 1020.3 |
| 20260905153003 | 91 | 247 | 7.0 | 12.0 | 0.00 | 0.00 | 0.00 | 47 | 1020.3 |
| 20260905152003 | 91 | 247 | 5.0 | 14.0 | 0.00 | 0.00 | 0.00 | 47 | 1020.3 |
| 20260905151003 | 91 | 239 | 4.0 | 12.0 | 0.00 | 0.00 | 0.00 | 46 | 1020.4 |
| 20260905150004 | 92 | 243 | 5.0 | 10.0 | 0.00 | 0.00 | 0.00 | 45 | 1020.4 |
| 20260905145215 | 92 | 239 | 4.0 | 11.0 | 0.00 | 0.00 | 0.00 | 44 | 1020.4 |
| 20260905144004 | 93 | 227 | 4.0 | 9.0 | 0.00 | 0.00 | 0.00 | 42 | 1020.5 |
| 20260905143003 | 93 | 222 | 5.0 | 8.0 | 0.00 | 0.00 | 0.00 | 43 | 1020.5 |
| 20260905142213 | 92 | 250 | 8.0 | 16.0 | 0.00 | 0.00 | 0.00 | 42 | 1020.5 |
| 20260905141004 | 92 | 252 | 8.0 | 15.0 | 0.00 | 0.00 | 0.00 | 42 | 1020.5 |
| 20260905140004 | 92 | 253 | 7.0 | 14.0 | 0.00 | 0.00 | 0.00 | 39 | 1020.6 |
| 20260905135003 | 94 | 252 | 4.0 | 14.0 | 0.00 | 0.00 | 0.00 | 36 | 1020.6 |
| 20260905134217 | 95 | 232 | 5.0 | 10.0 | 0.00 | 0.00 | 0.00 | 34 | 1020.7 |
| 20260905133003 | 94 | 249 | 4.0 | 12.0 | 0.00 | 0.00 | 0.00 | 34 | 1020.6 |
| 20260905132003 | 94 | 232 | 6.0 | 11.0 | 0.00 | 0.00 | 0.00 | 35 | 1020.8 |
| 20260905131003 | 94 | 252 | 5.0 | 13.0 | 0.00 | 0.00 | 0.00 | 33 | 1020.7 |
| 20260905130004 | 95 | 250 | 5.0 | 15.0 | 0.00 | 0.00 | 0.00 | 32 | 1020.8 |
| 20260905125003 | 95 | 244 | 3.0 | 8.0 | 0.00 | 0.00 | 0.00 | 32 | 1020.9 |
| 20260905124004 | 94 | 233 | 4.0 | 11.0 | 0.00 | 0.00 | 0.00 | 33 | 1020.9 |
| 20260905123003 | 94 | 258 | 5.0 | 11.0 | 0.00 | 0.00 | 0.00 | 33 | 1020.9 |
| 20260905122004 | 95 | 220 | 3.0 | 9.0 | 0.00 | 0.00 | 0.00 | 30 | 1021.0 |
| 20260905121216 | 95 | 202 | 3.0 | 9.0 | 0.00 | 0.00 | 0.00 | 30 | 1021.1 |
| 20260905120003 | 95 | 177 | 3.0 | 6.0 | 0.00 | 0.00 | 0.00 | 30 | 1021.2 |
| 20260905115003 | 94 | 213 | 2.0 | 8.0 | 0.00 | 0.00 | 0.00 | 29 | 1021.2 |
| 20260905114004 | 94 | 220 | 3.0 | 7.0 | 0.00 | 0.00 | 0.00 | 27 | 1021.3 |
| 20260905113003 | 93 | 218 | 3.0 | 9.0 | 0.00 | 0.00 | 0.00 | 29 | 1021.4 |
| 20260905112003 | 93 | 234 | 5.0 | 10.0 | 0.00 | 0.00 | 0.00 | 29 | 1021.5 |
| 20260905111003 | 92 | 242 | 4.0 | 11.0 | 0.00 | 0.00 | 0.00 | 31 | 1021.5 |
| 20260905110004 | 92 | 237 | 2.0 | 10.0 | 0.00 | 0.00 | 0.00 | 33 | 1021.5 |
| 20260905105003 | 93 | 215 | 2.0 | 6.0 | 0.00 | 0.00 | 0.00 | 30 | 1021.5 |
| 20260905104214 | 92 | 236 | 3.0 | 8.0 | 0.00 | 0.00 | 0.00 | 32 | 1021.5 |
| 20260905102003 | 91 | 223 | 3.0 | 11.0 | 0.00 | 0.00 | 0.00 | 34 | 1021.6 |
| 20260905101217 | 90 | 241 | 3.0 | 8.0 | 0.00 | 0.00 | 0.00 | 36 | 1021.7 |
| 20260905100004 | 90 | 177 | 3.0 | 7.0 | 0.00 | 0.00 | 0.00 | 37 | 1021.7 |
| 20260905095003 | 89 | 246 | 2.0 | 6.0 | 0.00 | 0.00 | 0.00 | 40 | 1021.8 |
| 20260905094214 | 88 | 275 | 2.0 | 6.0 | 0.00 | 0.00 | 0.00 | 43 | 1021.9 |
| 20260905093003 | 87 | 276 | 2.0 | 5.0 | 0.00 | 0.00 | 0.00 | 45 | 1021.9 |
| 20260905092004 | 87 | 290 | 2.0 | 4.0 | 0.00 | 0.00 | 0.00 | 46 | 1022.0 |
| 20260905091004 | 87 | 262 | 2.0 | 4.0 | 0.00 | 0.00 | 0.00 | 46 | 1022.0 |
| 20260905090003 | 86 | 258 | 1.0 | 5.0 | 0.00 | 0.00 | 0.00 | 47 | 1021.8 |
| 20260905085003 | 86 | 226 | 0.0 | 2.0 | 0.00 | 0.00 | 0.00 | 48 | 1021.7 |
| 20260905084003 | 84 | 242 | 1.0 | 2.0 | 0.00 | 0.00 | 0.00 | 50 | 1021.9 |
| 20260905083004 | 83 | 264 | 1.0 | 3.0 | 0.00 | 0.00 | 0.00 | 53 | 1021.8 |
| 20260905082003 | 82 | 260 | 1.0 | 2.0 | 0.00 | 0.00 | 0.00 | 53 | 1021.7 |
| 20260905081003 | 81 | 276 | 1.0 | 4.0 | 0.00 | 0.00 | 0.00 | 55 | 1021.9 |
| 20260905080003 | 80 | 330 | 1.0 | 3.0 | 0.00 | 0.00 | 0.00 | 55 | 1021.9 |
| 20260905075003 | 80 | 68 | 1.0 | 1.0 | 0.00 | 0.00 | 0.00 | 54 | 1021.8 |
| 20260905074003 | 77 | 60 | 3.0 | 4.0 | 0.00 | 0.00 | 0.00 | 59 | 1021.6 |
| 20260905073003 | 76 | 73 | 3.0 | 6.0 | 0.00 | 0.00 | 0.00 | 60 | 1021.6 |